TimeCDT,TemperatureF,Dew PointF,Humidity,Sea Level PressureIn,VisibilityMPH,Wind Direction,Wind SpeedMPH,Gust SpeedMPH,PrecipitationIn,Events,Conditions,WindDirDegrees,DateUTC
12:52 AM,57.0,54.0,89,29.73,-9999.0,West,12.7,18.4,0.20,,Unknown,260,2013-04-08 05:52:00
1:52 AM,55.0,51.1,86,29.67,-9999.0,NW,3.5,-,0.28,,Unknown,320,2013-04-08 06:52:00
2:52 AM,53.1,50.0,89,29.66,-9999.0,SSW,4.6,-,N/A,,Unknown,210,2013-04-08 07:52:00
3:52 AM,53.1,50.0,89,29.66,-9999.0,SSW,5.8,-,N/A,,Unknown,210,2013-04-08 08:52:00
4:52 AM,52.0,48.9,89,29.66,-9999.0,Variable,3.5,-,N/A,,Unknown,0,2013-04-08 09:52:00
5:52 AM,53.1,50.0,89,29.66,-9999.0,SW,3.5,-,N/A,,Unknown,220,2013-04-08 10:52:00
6:52 AM,54.0,51.1,90,29.69,-9999.0,SW,3.5,-,N/A,,Unknown,220,2013-04-08 11:52:00
7:52 AM,55.9,52.0,87,29.72,-9999.0,South,5.8,-,N/A,,Unknown,190,2013-04-08 12:52:00
8:52 AM,57.9,54.0,87,29.73,-9999.0,South,5.8,-,N/A,,Unknown,190,2013-04-08 13:52:00
9:52 AM,61.0,57.0,87,29.73,-9999.0,South,4.6,-,N/A,,Unknown,190,2013-04-08 14:52:00
10:52 AM,64.0,57.9,80,29.75,-9999.0,South,4.6,-,N/A,,Unknown,190,2013-04-08 15:52:00
11:52 AM,68.0,57.9,70,29.75,-9999.0,Calm,Calm,-,N/A,,Unknown,0,2013-04-08 16:52:00
12:52 PM,69.1,60.1,73,29.75,-9999.0,SSW,6.9,-,N/A,,Unknown,200,2013-04-08 17:52:00
1:52 PM,68.0,59.0,73,29.74,-9999.0,South,5.8,-,N/A,,Unknown,180,2013-04-08 18:52:00
2:52 PM,70.0,61.0,73,29.74,-9999.0,South,9.2,-,N/A,,Unknown,170,2013-04-08 19:52:00
3:52 PM,72.0,60.1,66,29.71,-9999.0,SSE,9.2,-,N/A,,Unknown,160,2013-04-08 20:52:00
4:52 PM,73.0,61.0,66,29.70,-9999.0,SE,5.8,-,N/A,,Unknown,130,2013-04-08 21:52:00
5:52 PM,73.9,60.1,62,29.70,-9999.0,SE,10.4,-,N/A,,Unknown,140,2013-04-08 22:52:00
6:52 PM,73.0,60.1,64,29.71,-9999.0,SE,8.1,-,N/A,,Unknown,130,2013-04-08 23:52:00
7:52 PM,70.0,61.0,73,29.73,-9999.0,East,3.5,-,N/A,,Unknown,90,2013-04-09 00:52:00
8:52 PM,70.0,60.1,71,29.73,-9999.0,East,4.6,-,N/A,,Unknown,90,2013-04-09 01:52:00
9:52 PM,69.1,60.1,73,29.75,-9999.0,ESE,6.9,-,N/A,,Unknown,110,2013-04-09 02:52:00
10:52 PM,68.0,59.0,73,29.75,-9999.0,ESE,4.6,-,N/A,,Unknown,120,2013-04-09 03:52:00
11:52 PM,68.0,57.9,70,29.73,-9999.0,SSE,5.8,-,N/A,,Unknown,150,2013-04-09 04:52:00